• En España
  • Lista de países
  • Para 7 días
  • Temperatura del agua
  • Mapa Satelital
  • El tiempo en el mapa
  • Informadores
  • user-avatar
    Iniciar sesión

    Tiempo cada hora Dobromierz

    Hoy, 24 Noviembre, Viernes

    Tiempo Temperatura Precipitaciones Viento Presión Humedad
    00:00 +5°C° 0 mm 4 mps 735 mmHg 74%
    01:00 +6°C° 0 mm 2 mps 735 mmHg 79%
    02:00 +5°C° 0 mm 3 mps 735 mmHg 79%
    03:00 +5°C° 0 mm 3 mps 735 mmHg 79%
    04:00 +5°C° 0 mm 3 mps 735 mmHg 78%
    05:00 +5°C° 0 mm 3 mps 735 mmHg 79%
    06:00 +5°C° 0 mm 4 mps 735 mmHg 79%
    07:00 +5°C° 0 mm 2 mps 734 mmHg 84%
    08:00 +5°C° 0 mm 3 mps 734 mmHg 80%
    09:00 +6°C° 0 mm 4 mps 734 mmHg 75%
    10:00 +8°C° 0 mm 5 mps 734 mmHg 71%
    11:00 +9°C° 0 mm 5 mps 734 mmHg 68%
    12:00 +9°C° 0 mm 5 mps 734 mmHg 65%
    13:00 +10°C° 0 mm 6 mps 734 mmHg 63%
    14:00 +10°C° 0 mm 5 mps 733 mmHg 65%
    15:00 +9°C° 0 mm 5 mps 733 mmHg 68%
    16:00 +8°C° 0 mm 5 mps 733 mmHg 70%
    17:00 +8°C° 0 mm 5 mps 733 mmHg 71%
    18:00 +8°C° 0 mm 5 mps 733 mmHg 71%
    19:00 +8°C° 0 mm 5 mps 734 mmHg 72%
    20:00 +7°C° 0 mm 4 mps 734 mmHg 73%
    21:00 +7°C° 0 mm 4 mps 734 mmHg 74%
    22:00 +7°C° 0 mm 4 mps 734 mmHg 75%
    23:00 +7°C° 0 mm 3 mps 734 mmHg 77%

    Mañana, 25 Noviembre, Sábado

    Tiempo Temperatura Precipitaciones Viento Presión Humedad
    00:00 +7°C° 0 mm 3 mps 734 mmHg 78%
    01:00 +7°C° 0 mm 3 mps 734 mmHg 80%
    02:00 +5°C° 0 mm 3 mps 734 mmHg 81%
    03:00 +5°C° 0 mm 3 mps 733 mmHg 81%
    04:00 +5°C° 0 mm 3 mps 733 mmHg 82%
    05:00 +5°C° 0 mm 3 mps 732 mmHg 83%
    06:00 +5°C° 0 mm 3 mps 731 mmHg 84%
    07:00 +5°C° 0 mm 4 mps 731 mmHg 85%
    08:00 +5°C° 0 mm 4 mps 730 mmHg 82%
    09:00 +6°C° 0 mm 5 mps 729 mmHg 79%
    10:00 +7°C° 0 mm 6 mps 728 mmHg 76%
    11:00 +7°C° 0 mm 6 mps 728 mmHg 75%
    12:00 +7°C° 0 mm 6 mps 727 mmHg 74%
    13:00 +8°C° 0 mm 6 mps 727 mmHg 72%
    14:00 +7°C° 0,1 mm 5 mps 727 mmHg 75%
    15:00 +7°C° 0,1 mm 5 mps 727 mmHg 77%
    16:00 +7°C° 0,1 mm 4 mps 727 mmHg 79%
    17:00 +6°C° 0,2 mm 4 mps 727 mmHg 81%
    18:00 +6°C° 0,2 mm 4 mps 728 mmHg 83%
    19:00 +6°C° 0,2 mm 5 mps 728 mmHg 84%
    20:00 +5°C° 0,2 mm 5 mps 729 mmHg 84%
    21:00 +3°C° 0,2 mm 5 mps 730 mmHg 84%
    22:00 +3°C° 0,2 mm 5 mps 731 mmHg 84%
    23:00 +2°C° 0,1 mm 5 mps 732 mmHg 83%

    Pasado mañana, 26 Noviembre, Domingo

    Tiempo Temperatura Precipitaciones Viento Presión Humedad
    00:00 +2°C° 0,1 mm 5 mps 733 mmHg 82%
    01:00 +1°C° 0,1 mm 4 mps 733 mmHg 82%
    02:00 +1°C° 0 mm 4 mps 734 mmHg 83%
    03:00 +1°C° 0 mm 3 mps 735 mmHg 85%
    04:00 +1°C° 0 mm 3 mps 735 mmHg 86%
    05:00 +1°C° 0 mm 3 mps 736 mmHg 87%
    06:00 0°C° 0 mm 3 mps 736 mmHg 87%
    07:00 0°C° 0 mm 3 mps 736 mmHg 88%
    08:00 +1°C° 0 mm 3 mps 737 mmHg 84%
    09:00 +1°C° 0 mm 3 mps 737 mmHg 79%
    10:00 +2°C° 0 mm 3 mps 738 mmHg 75%
    11:00 +3°C° 0 mm 4 mps 738 mmHg 72%
    12:00 +3°C° 0 mm 4 mps 738 mmHg 68%
    13:00 +4°C° 0 mm 4 mps 738 mmHg 65%
    14:00 +3°C° 0 mm 3 mps 738 mmHg 68%
    15:00 +2°C° 0 mm 3 mps 738 mmHg 71%
    16:00 +2°C° 0 mm 2 mps 739 mmHg 75%
    17:00 +1°C° 0 mm 3 mps 739 mmHg 76%
    18:00 0°C° 0 mm 3 mps 739 mmHg 78%
    19:00 0°C° 0 mm 3 mps 740 mmHg 79%
    20:00 0°C° 0 mm 3 mps 740 mmHg 80%
    21:00 0°C° 0 mm 3 mps 740 mmHg 80%
    22:00 -1°C° 0 mm 3 mps 740 mmHg 81%
    23:00 -1°C° 0 mm 3 mps 740 mmHg 81%

    27 Noviembre, Lunes

    Tiempo Temperatura Precipitaciones Viento Presión Humedad
    00:00 -1°C° 0 mm 3 mps 740 mmHg 81%
    01:00 -1°C° 0 mm 3 mps 740 mmHg 82%
    02:00 -1°C° 0 mm 3 mps 740 mmHg 82%
    03:00 -2°C° 0 mm 4 mps 740 mmHg 82%
    04:00 -2°C° 0 mm 4 mps 740 mmHg 82%
    05:00 -2°C° 0 mm 4 mps 740 mmHg 82%
    06:00 -2°C° 0 mm 4 mps 740 mmHg 82%
    07:00 -2°C° 0 mm 4 mps 741 mmHg 82%
    08:00 -1°C° 0 mm 4 mps 741 mmHg 79%
    09:00 0°C° 0 mm 4 mps 741 mmHg 77%
    10:00 +1°C° 0 mm 5 mps 741 mmHg 74%
    11:00 +1°C° 0 mm 5 mps 741 mmHg 72%
    12:00 +2°C° 0 mm 5 mps 741 mmHg 69%
    13:00 +2°C° 0 mm 5 mps 741 mmHg 66%
    14:00 +1°C° 0 mm 4 mps 741 mmHg 70%
    15:00 +1°C° 0 mm 4 mps 741 mmHg 73%
    16:00 +1°C° 0 mm 3 mps 740 mmHg 76%
    17:00 0°C° 0 mm 3 mps 740 mmHg 78%
    18:00 0°C° 0 mm 3 mps 740 mmHg 80%
    19:00 -1°C° 0 mm 3 mps 740 mmHg 82%
    20:00 -1°C° 0 mm 3 mps 740 mmHg 82%
    21:00 -1°C° 0 mm 3 mps 740 mmHg 82%
    22:00 -2°C° 0 mm 4 mps 739 mmHg 82%
    23:00 -2°C° 0 mm 4 mps 739 mmHg 82%

    28 Noviembre, Martes

    Tiempo Temperatura Precipitaciones Viento Presión Humedad
    00:00 -2°C° 0 mm 4 mps 738 mmHg 82%
    01:00 -2°C° 0 mm 4 mps 738 mmHg 82%
    02:00 -2°C° 0 mm 4 mps 737 mmHg 82%
    03:00 -2°C° 0 mm 4 mps 737 mmHg 81%
    04:00 -2°C° 0 mm 4 mps 736 mmHg 81%
    05:00 -2°C° 0 mm 4 mps 736 mmHg 80%
    06:00 -2°C° 0 mm 4 mps 736 mmHg 78%
    07:00 -2°C° 0 mm 4 mps 735 mmHg 77%
    08:00 -1°C° 0 mm 4 mps 735 mmHg 72%
    09:00 0°C° 0 mm 5 mps 735 mmHg 67%
    10:00 +1°C° 0 mm 5 mps 735 mmHg 62%
    11:00 +1°C° 0 mm 5 mps 734 mmHg 58%
    12:00 +2°C° 0 mm 5 mps 734 mmHg 55%
    13:00 +3°C° 0 mm 5 mps 733 mmHg 51%
    14:00 +2°C° 0 mm 5 mps 732 mmHg 54%
    15:00 +1°C° 0 mm 4 mps 732 mmHg 57%
    16:00 0°C° 0 mm 4 mps 731 mmHg 59%
    17:00 0°C° 0 mm 4 mps 731 mmHg 60%
    18:00 0°C° 0 mm 4 mps 731 mmHg 60%
    19:00 0°C° 0 mm 4 mps 730 mmHg 60%
    20:00 0°C° 0 mm 5 mps 730 mmHg 60%
    21:00 0°C° 0 mm 5 mps 730 mmHg 60%
    22:00 0°C° 0 mm 5 mps 729 mmHg 60%
    23:00 0°C° 0 mm 5 mps 729 mmHg 61%

    29 Noviembre, Miércoles

    Tiempo Temperatura Precipitaciones Viento Presión Humedad
    00:00 0°C° 0 mm 5 mps 729 mmHg 62%
    01:00 0°C° 0 mm 5 mps 728 mmHg 62%
    02:00 0°C° 0 mm 4 mps 728 mmHg 62%
    03:00 -1°C° 0 mm 4 mps 728 mmHg 61%
    04:00 -1°C° 0 mm 4 mps 727 mmHg 61%
    05:00 -1°C° 0 mm 4 mps 727 mmHg 62%
    06:00 -1°C° 0 mm 4 mps 727 mmHg 63%
    07:00 -1°C° 0 mm 5 mps 727 mmHg 64%
    08:00 -1°C° 0 mm 5 mps 727 mmHg 63%
    09:00 0°C° 0 mm 5 mps 727 mmHg 63%
    10:00 0°C° 0 mm 5 mps 727 mmHg 62%
    11:00 +1°C° 0 mm 5 mps 727 mmHg 62%
    12:00 +1°C° 0 mm 5 mps 727 mmHg 61%
    13:00 +2°C° 0 mm 5 mps 727 mmHg 60%
    14:00 +1°C° 0 mm 5 mps 727 mmHg 64%
    15:00 +1°C° 0 mm 4 mps 727 mmHg 67%
    16:00 0°C° 0 mm 4 mps 727 mmHg 71%
    17:00 0°C° 0 mm 4 mps 727 mmHg 72%
    18:00 0°C° 0 mm 4 mps 727 mmHg 73%
    19:00 -1°C° 0 mm 4 mps 727 mmHg 75%
    20:00 0°C° 0 mm 3 mps 727 mmHg 77%
    21:00 0°C° 0 mm 3 mps 728 mmHg 79%
    22:00 -1°C° 0 mm 3 mps 728 mmHg 80%
    23:00 -1°C° 0 mm 2 mps 727 mmHg 81%
    Mostrar más